Location: Unspecified
(0.0000°N, 0.0000°E)
Time: 07:45:04
(UTC+00:00)

Vanguard 2 Rocket - Pass Details

Date: 08 October 2022
Orbit: 553 x 3312 km, 32.9° (Epoch: 28 November)

Event Time Altitude Azimuth Distance (km) Brightness Sun altitude
Rises 21:53:02 0° 286° (WNW) 7,249 11.9 -60.8°
Reaches altitude 10° 22:01:36 10° 305° (NW) 5,941 11.2 -62.9°
Enters shadow 22:09:35 16° 331° (NNW) 4,989 10.6 -64.8°
